Погода в Любимовке

Украина / Херсонская область     47°23′34″N   33°42′59″E
темп.,
°C
ветер,
м/с
пор.,
м/с
влажн.,
%
обл.,
%
осадки,
мм/ч
давл.,
гПа
погр.,
м
21 апреля, ср
ср2100:00+7з498528 0.0 1008150
03:00+6з4985100 0.0 1010196
06:00+6зюз3688100 0.0 1012115
09:00+10з4667100 0.0 1014441
12:00+15зюз574756 0.0 10152056
15:00+15зюз5742100 0.0 10142214
18:00+15з355284 0.1 1015795
21:00+11юз497193 0.4 1017198
22 апреля, чт
чт2200:00+8юз48855 0.0 1018158
03:00+7юз359112 0.0 101987
06:00+6ююз339242 0.0 102052
09:00+12ююз34715 0.0 1021452
12:00+16ююз44515 0.1 10211430
15:00+17ю554280 0.9 10202310
18:00+14ююз5861100 0.1 1020287
21:00+12ююз510744 0.2 1021264
23 апреля, пт
пт2300:00+9ююз410870 0.0 1020209
03:00+8ююз410932 0.0 1020207
06:00+7ююз5119347 0.0 1020248
09:00+12ююз7116799 0.0 1019548
12:00+17ююз81049100 0.0 10181419
15:00+17ююз9104564 0.0 10161921
18:00+15ююз81055100 0.0 10161200
21:00+12юз61169100 0.0 1016688
24 апреля, сб
сб2400:00+9зсз5788100 0.3 1016514
03:00+7сз588427 0.8 1016621
06:00+4зсз37900 0.0 1018195
09:00+9з57640 0.0 1018766
12:00+12з79415 0.0 10181961
15:00+12з8104893 0.1 10182241
18:00+11зсз710416 0.0 10182464
21:00+6з410611 0.1 1020309
25 апреля, вс
вс2500:00+4з37670 0.0 1021116
03:00+3з36690 0.0 102191
06:00+2з47681 0.0 1021126
09:00+8з46521 0.0 1021735
12:00+11зсз67345 0.0 10202000
15:00+13зсз67325 0.0 10192181
18:00+12зсз463410 0.0 10192335
21:00+8зюз114688 0.0 101910